Location: Moscow
(30.9132°N, 94.8252°W)
Time: 11:24:08
(UTC+00:00)

Cosmos 2242 Rocket - Pass Details

Date: 15 November 2025
Orbit: 614 x 644 km, 82.5° (Epoch: 11 December)

Event Time Altitude Azimuth Distance (km) Brightness Sun altitude
Rises 11:00:12 0° 180° (S) 2,866 7.1 -22.8°
Reaches altitude 10° 11:02:25 10° 178° (S) 1,966 6.2 -22.3°
Maximum altitude 11:06:44 71° 95° (E) 653 3.7 -21.4°
Drops below altitude 10° 11:11:07 10° 11° (N) 1,989 6.2 -20.5°
Sets 11:13:22 0° 9° (N) 2,903 7.0 -20.0°
